�N����,����,�~����,�C��,���x,�C��,����,���ϕ���,�ő�u�ԕ���,�ő厞����,���˗�,�I�_���x,�n�����x,�ő啗���N��,DTYPE
"23/07/19","00:10",0.0,25.4,86.9,1003.6,296.5,0.8,1.7,338.6,0.00,23.1,25.8,"00:06:32",1
"23/07/19","00:20",0.0,25.6,87.1,1003.6,277.1,0.7,1.7,304.4,0.00,23.3,25.8,"00:10:56",1
"23/07/19","00:30",0.0,25.5,87.1,1003.4,320.7,1.0,2.1,329.6,0.00,23.2,25.8,"00:28:16",1
"23/07/19","00:40",0.0,25.6,87.0,1003.1,329.1,1.0,1.4,339.2,0.00,23.3,25.7,"00:31:44",1
"23/07/19","00:50",0.0,25.3,87.1,1003.1,323.5,0.7,1.2,333.6,0.00,23.0,25.5,"00:40:40",1
"23/07/19","01:00",0.0,25.1,87.5,1002.9,298.8,0.7,1.1,337.2,0.00,22.9,25.5,"00:50:48",1
"23/07/19","01:10",0.0,25.1,87.7,1002.9,294.3,0.7,1.3,319.3,0.00,23.0,25.6,"01:00:08",1
"23/07/19","01:20",0.0,25.1,88.0,1002.9,297.1,0.8,1.3,328.9,0.00,23.0,25.5,"01:17:28",1
"23/07/19","01:30",0.0,25.0,88.2,1002.9,287.7,0.8,1.4,310.1,0.00,23.0,25.5,"01:26:32",1
"23/07/19","01:40",0.0,25.1,88.3,1003.1,276.1,0.7,1.2,306.3,0.00,23.1,25.3,"01:38:24",1
"23/07/19","01:50",0.0,25.0,88.4,1002.9,330.4,0.8,1.9,338.1,0.00,23.0,25.3,"01:43:52",1
"23/07/19","02:00",0.0,24.8,88.6,1002.6,305.4,0.7,1.3,304.8,0.00,22.8,25.4,"01:59:12",1
"23/07/19","02:10",0.0,24.6,88.8,1002.6,306.9,0.5,1.3,275.7,0.00,22.7,25.2,"02:03:12",1
"23/07/19","02:20",0.0,24.4,89.1,1002.9,292.2,0.6,1.3,322.1,0.00,22.5,25.3,"02:19:36",1
"23/07/19","02:30",0.0,24.4,89.3,1002.6,336.2,1.0,1.3,320.4,0.00,22.6,25.3,"02:20:16",1
"23/07/19","02:40",0.0,24.0,89.6,1002.6,266.5,0.3,0.8,332.7,0.00,22.2,25.2,"02:30:32",1
"23/07/19","02:50",0.0,24.2,90.0,1002.4,334.4,0.7,1.4,330.6,0.00,22.5,25.2,"02:43:20",1
"23/07/19","03:00",0.0,24.3,90.3,1002.9,326.6,1.0,1.3,320.6,0.00,22.6,25.2,"02:54:40",1
"23/07/19","03:10",0.0,24.2,90.6,1002.6,335.5,0.7,1.2,313.6,0.00,22.6,25.2,"03:09:04",1
"23/07/19","03:20",0.0,24.2,90.9,1002.4,325.2,0.8,1.3,339.4,0.00,22.7,25.1,"03:14:00",1
"23/07/19","03:30",0.0,24.1,91.1,1002.6,312.4,0.6,1.3,320.6,0.00,22.6,25.2,"03:21:12",1
"23/07/19","03:40",0.0,24.0,91.3,1002.9,280.1,0.7,1.2,319.4,0.00,22.5,25.1,"03:38:16",1
"23/07/19","03:50",0.0,24.1,91.5,1002.6,315.6,1.2,2.1,333.9,0.00,22.7,25.1,"03:45:04",1
"23/07/19","04:00",0.0,24.1,91.6,1002.9,306.7,0.8,1.4,336.2,0.00,22.7,25.2,"03:54:48",1
"23/07/19","04:10",0.0,24.0,91.8,1002.9,324.9,0.8,1.9,322.5,0.00,22.6,25.1,"04:01:44",1
"23/07/19","04:20",0.0,23.9,91.9,1002.9,328.5,0.7,1.1,271.4,0.00,22.5,24.7,"04:18:32",1
"23/07/19","04:30",0.0,23.8,92.1,1002.9,317.1,0.7,1.4,261.2,0.00,22.5,25.2,"04:28:48",1
"23/07/19","04:40",0.0,23.7,92.2,1002.9,307.4,0.7,1.3,303.2,0.00,22.4,24.9,"04:39:28",1
"23/07/19","04:50",0.0,23.8,92.3,1002.6,292.6,1.2,2.6,341.2,0.00,22.5,24.8,"04:41:20",1
"23/07/19","05:00",0.0,23.7,92.4,1002.9,308.5,1.1,2.2,324.1,0.00,22.4,24.7,"04:58:08",1
"23/07/19","05:10",0.0,23.8,92.5,1002.6,291.4,0.7,1.4,328.6,0.00,22.6,24.7,"05:04:16",1
"23/07/19","05:20",0.0,23.9,92.7,1002.9,338.0,0.6,1.7,340.8,0.00,22.7,24.9,"05:19:20",1
"23/07/19","05:30",0.0,24.1,92.7,1002.6,293.7,0.7,1.6,334.7,0.00,22.9,24.8,"05:27:20",1
"23/07/19","05:40",0.0,24.3,92.7,1002.6,324.1,1.1,2.1,339.0,0.00,23.1,24.8,"05:38:32",1
"23/07/19","05:50",0.0,24.6,92.7,1002.4,324.4,0.7,1.7,311.8,0.00,23.4,24.7,"05:43:44",1
"23/07/19","06:00",0.0,24.8,92.6,1002.4,250.1,0.3,0.8,285.7,0.01,23.6,24.7,"05:56:56",1
"23/07/19","06:10",0.0,24.9,92.6,1002.6,246.5,0.3,1.0,317.1,0.01,23.7,24.5,"06:06:08",1
"23/07/19","06:20",0.0,25.0,92.4,1002.4,328.6,0.8,1.8,339.9,0.01,23.7,24.7,"06:15:20",1
"23/07/19","06:30",0.0,25.1,92.3,1002.4,330.7,1.5,2.4,346.7,0.01,23.8,24.7,"06:25:20",1
"23/07/19","06:40",0.0,25.3,92.2,1002.6,265.4,0.7,1.1,267.2,0.03,24.0,24.7,"06:35:52",1
"23/07/19","06:50",0.0,25.3,91.8,1002.6,293.5,1.1,1.8,328.5,0.04,23.9,24.7,"06:48:32",1
"23/07/19","07:00",0.0,25.6,91.4,1002.4,324.8,1.1,2.2,319.6,0.05,24.1,24.7,"06:50:16",1
"23/07/19","07:10",0.0,26.1,90.8,1002.6,338.9,0.8,1.7,343.2,0.05,24.5,24.7,"07:01:44",1
"23/07/19","07:20",0.0,26.4,90.3,1002.2,251.4,0.3,1.1,314.8,0.03,24.7,24.7,"07:12:48",1
"23/07/19","07:30",0.0,26.5,89.6,1002.4,268.2,0.2,0.8,289.4,0.04,24.7,24.7,"07:28:24",1
"23/07/19","07:40",0.0,26.8,89.3,1002.2,338.1,0.8,2.1,346.8,0.04,24.9,24.6,"07:37:20",1
"23/07/19","07:50",0.0,26.8,88.8,1002.2,325.0,0.7,1.6,342.0,0.05,24.8,24.8,"07:42:40",1
"23/07/19","08:00",0.0,26.7,88.5,1002.2,310.3,1.1,2.1,345.6,0.04,24.7,24.7,"07:52:48",1
"23/07/19","08:10",0.0,26.8,88.0,1002.2,303.3,0.8,1.8,349.5,0.04,24.7,24.9,"08:08:48",1
"23/07/19","08:20",0.0,27.1,87.7,1002.2,341.5,1.1,2.0,338.4,0.07,24.9,24.9,"08:13:44",1
"23/07/19","08:30",0.0,27.2,87.4,1001.9,313.6,1.0,1.8,329.5,0.06,25.0,24.7,"08:25:04",1
"23/07/19","08:40",0.0,27.2,87.1,1002.2,308.5,0.8,1.4,336.6,0.08,24.9,24.7,"08:32:40",1
"23/07/19","08:50",0.0,27.9,86.1,1001.7,325.8,0.5,1.7,1.2,0.14,25.4,24.8,"08:41:12",1
"23/07/19","09:00",0.0,28.3,83.8,1001.7,352.7,0.7,1.1,44.2,0.11,25.3,24.9,"08:51:36",1
"23/07/19","09:10",0.0,28.4,82.2,1001.0,88.2,0.5,1.3,147.5,0.10,25.1,24.7,"09:09:28",1
"23/07/19","09:20",0.0,28.6,81.0,1000.8,206.7,0.3,1.0,217.9,0.10,25.1,24.8,"09:10:48",1
"23/07/19","09:30",0.0,28.8,80.1,1001.0,356.4,0.7,1.8,357.5,0.08,25.1,24.8,"09:28:40",1
"23/07/19","09:40",0.0,28.8,80.1,1001.0,340.6,1.0,1.7,348.3,0.10,25.1,24.8,"09:33:04",1
"23/07/19","09:50",0.0,28.8,79.6,1000.5,47.4,0.6,1.6,11.3,0.09,25.0,25.0,"09:46:00",1
"23/07/19","10:00",0.0,29.0,79.0,1000.8,19.0,0.6,1.4,23.7,0.11,25.0,24.9,"09:53:04",1
"23/07/19","10:10",0.0,29.5,78.1,1001.0,341.2,0.8,1.7,345.5,0.15,25.3,24.9,"10:02:16",1
"23/07/19","10:20",0.0,29.9,75.6,1001.0,171.3,0.5,1.2,116.4,0.20,25.2,24.9,"10:14:40",1
"23/07/19","10:30",0.0,30.5,73.4,1001.7,195.6,1.2,3.4,206.7,0.42,25.2,24.9,"10:27:52",1
"23/07/19","10:40",0.0,31.3,69.2,1001.9,187.6,2.0,4.4,205.6,0.50,25.0,24.9,"10:34:48",1
"23/07/19","10:50",0.0,30.9,68.0,1001.7,210.5,2.2,5.1,214.0,0.28,24.3,25.0,"10:42:00",1
"23/07/19","11:00",0.0,31.3,66.6,1001.5,214.0,1.6,3.1,203.2,0.36,24.4,25.1,"10:54:16",1
"23/07/19","11:10",0.0,31.3,65.4,1001.7,197.8,2.3,6.2,225.5,0.39,24.1,25.3,"11:08:24",1
"23/07/19","11:20",0.0,32.0,65.6,1001.7,248.5,1.5,4.0,227.9,0.45,24.8,25.2,"11:17:36",1
"23/07/19","11:30",0.0,32.9,62.2,1001.9,203.1,1.5,4.2,219.5,0.62,24.7,25.2,"11:21:36",1
"23/07/19","11:40",0.0,32.7,61.5,1002.4,207.8,2.8,6.0,196.6,0.53,24.4,25.2,"11:34:08",1
"23/07/19","11:50",0.0,32.4,60.8,1002.2,220.6,2.1,5.8,201.6,0.38,23.9,25.3,"11:45:44",1
"23/07/19","12:00",0.0,31.7,61.5,1001.5,226.8,2.5,5.9,226.8,0.25,23.4,25.4,"11:52:48",1
"23/07/19","12:10",0.0,31.3,62.9,1001.2,254.3,1.8,7.2,346.4,0.16,23.4,25.6,"12:06:56",1
"23/07/19","12:20",0.0,30.8,63.3,1000.5,254.4,2.1,6.0,215.6,0.14,23.1,25.5,"12:14:16",1
"23/07/19","12:30",0.0,30.8,64.4,1000.8,275.9,2.0,4.9,353.3,0.13,23.3,25.7,"12:25:52",1
"23/07/19","12:40",0.0,30.6,65.6,1000.0,237.7,2.0,6.3,207.9,0.14,23.5,25.3,"12:33:12",1
"23/07/19","12:50",0.0,31.0,64.5,999.8,247.9,1.6,4.1,312.0,0.25,23.6,25.7,"12:43:36",1
"23/07/19","13:00",0.0,31.1,64.6,999.3,281.3,1.5,4.1,282.9,0.21,23.7,25.5,"12:54:32",1
"23/07/19","13:10",0.0,31.1,63.7,999.6,195.9,1.7,4.8,231.2,0.18,23.4,25.7,"13:09:20",1
"23/07/19","13:20",0.0,31.1,63.8,999.6,225.7,2.0,5.6,213.2,0.18,23.5,25.5,"13:12:08",1
"23/07/19","13:30",0.0,31.0,64.6,999.8,276.1,1.3,3.1,232.5,0.16,23.6,25.7,"13:21:36",1
"23/07/19","13:40",0.0,30.8,65.5,999.6,284.1,1.6,3.6,344.6,0.21,23.6,25.5,"13:35:04",1
"23/07/19","13:50",0.0,31.5,64.3,1000.0,249.2,2.0,5.4,237.7,0.41,24.0,26.0,"13:48:32",1
"23/07/19","14:00",0.0,31.2,65.2,1000.0,225.7,2.2,4.1,201.4,0.20,23.9,25.9,"13:58:16",1
"23/07/19","14:10",0.0,31.1,66.3,999.6,247.4,1.0,4.9,229.0,0.14,24.1,25.7,"14:01:12",1
"23/07/19","14:20",0.0,31.0,65.9,1000.0,254.4,0.7,2.7,244.2,0.11,23.9,25.7,"14:14:08",1
"23/07/19","14:30",0.0,31.1,67.0,999.1,239.4,1.3,3.1,195.3,0.14,24.3,25.6,"14:21:04",1
"23/07/19","14:40",0.0,30.7,67.2,999.3,246.2,1.7,5.2,239.2,0.08,24.0,25.9,"14:38:16",1
"23/07/19","14:50",0.0,30.4,68.0,998.9,239.1,1.3,3.3,212.3,0.03,23.9,25.7,"14:41:44",1
"23/07/19","15:00",0.0,30.0,69.8,998.6,292.0,1.0,3.2,244.2,0.03,23.9,25.8,"14:50:16",1
"23/07/19","15:10",0.0,29.7,71.2,998.6,277.3,0.6,2.6,239.1,0.04,24.0,25.7,"15:03:04",1
"23/07/19","15:20",0.0,29.6,72.1,998.4,205.6,0.6,2.4,220.8,0.02,24.1,25.7,"15:12:24",1
"23/07/19","15:30",0.0,29.5,73.3,997.7,343.5,0.7,1.7,345.1,0.00,24.3,25.7,"15:29:28",1
"23/07/19","15:40",0.0,29.2,75.4,997.9,351.7,1.0,1.9,352.9,0.00,24.4,25.8,"15:38:00",1
"23/07/19","15:50",0.0,28.8,77.5,997.7,329.2,1.0,1.9,343.1,0.00,24.5,25.8,"15:44:24",1
"23/07/19","16:00",0.0,28.5,79.5,997.9,319.8,0.8,2.5,323.2,0.01,24.6,25.7,"15:53:20",1
"23/07/19","16:10",0.0,28.2,81.1,997.9,343.0,1.0,2.5,354.5,0.02,24.7,25.7,"16:06:04",1
"23/07/19","16:20",0.0,28.3,82.1,997.7,349.1,1.1,2.0,349.8,0.05,25.0,25.7,"16:14:56",1
"23/07/19","16:30",0.0,28.4,82.6,997.4,310.0,0.7,1.7,337.3,0.06,25.2,25.5,"16:21:36",1
"23/07/19","16:40",0.0,28.5,80.9,997.9,313.8,1.2,2.5,280.4,0.05,24.9,25.6,"16:31:44",1
"23/07/19","16:50",0.0,28.5,79.8,997.9,274.6,1.3,4.3,275.1,0.02,24.7,25.7,"16:40:24",1
"23/07/19","17:00",0.0,28.5,79.0,997.7,283.9,1.1,4.2,229.4,0.02,24.5,25.7,"16:53:28",1
"23/07/19","17:10",0.0,28.7,78.3,997.7,297.4,1.2,3.5,336.0,0.03,24.6,25.8,"17:00:56",1
"23/07/19","17:20",0.0,28.8,77.5,997.7,300.2,1.1,2.5,352.2,0.05,24.5,25.7,"17:17:04",1
"23/07/19","17:30",0.0,28.9,77.5,997.7,322.0,1.0,2.2,233.5,0.04,24.6,25.8,"17:29:36",1
"23/07/19","17:40",0.0,28.8,77.2,997.7,311.0,1.1,2.4,354.7,0.04,24.4,25.6,"17:38:32",1
"23/07/19","17:50",0.0,28.8,77.1,997.9,325.7,1.2,2.7,246.7,0.02,24.4,25.6,"17:48:24",1
"23/07/19","18:00",0.0,28.7,77.3,997.9,315.4,1.2,3.1,347.0,0.01,24.4,25.6,"17:50:24",1
"23/07/19","18:10",0.0,28.7,77.6,997.7,302.0,1.1,2.4,342.2,0.01,24.4,25.8,"18:02:08",1
"23/07/19","18:20",0.0,28.5,78.3,997.7,324.7,0.7,1.7,349.6,0.00,24.4,25.5,"18:10:40",1
"23/07/19","18:30",0.2,28.3,79.2,998.2,322.0,1.1,3.1,342.5,0.00,24.4,25.6,"18:28:16",1
"23/07/19","18:40",0.0,27.4,81.7,998.4,325.6,1.8,3.6,346.7,0.00,24.0,25.7,"18:38:48",1
"23/07/19","18:50",0.0,26.8,83.9,998.6,325.0,1.5,3.1,348.5,0.00,23.9,25.6,"18:40:56",1
"23/07/19","19:00",0.0,26.3,85.2,998.6,324.7,1.3,2.2,339.8,0.00,23.7,25.5,"18:53:36",1
"23/07/19","19:10",0.0,26.2,85.9,998.9,315.2,1.5,2.9,348.2,0.00,23.7,25.5,"19:04:48",1
"23/07/19","19:20",0.0,26.0,86.4,999.3,328.8,1.7,3.6,340.2,0.00,23.6,25.5,"19:10:02",1
"23/07/19","19:30",0.0,25.8,86.8,999.3,326.3,2.0,4.0,290.9,0.00,23.5,25.6,"19:21:12",1
"23/07/19","19:40",0.0,25.8,87.1,999.6,334.5,2.1,3.7,331.2,0.00,23.5,25.2,"19:33:44",1
"23/07/19","19:50",0.0,25.6,87.2,999.3,334.8,1.7,4.2,352.4,0.00,23.4,25.5,"19:48:00",1
"23/07/19","20:00",0.0,25.5,87.5,999.6,312.9,1.7,3.1,333.7,0.00,23.3,25.3,"19:54:00",1
"23/07/19","20:10",0.0,25.4,87.4,999.3,313.3,1.6,3.1,333.8,0.00,23.2,25.6,"20:03:20",1
"23/07/19","20:20",0.0,25.1,86.6,999.6,324.1,1.5,4.5,342.0,0.00,22.7,25.5,"20:19:44",1
"23/07/19","20:30",0.0,25.3,85.9,999.8,319.1,1.7,4.1,345.0,0.00,22.8,25.3,"20:23:36",1
"23/07/19","20:40",0.0,25.3,85.6,999.6,347.2,1.0,1.7,347.7,0.00,22.8,25.1,"20:39:04",1
"23/07/19","20:50",0.0,25.1,85.8,1000.3,307.2,1.0,1.6,340.2,0.00,22.6,25.4,"20:43:12",1
"23/07/19","21:00",0.0,24.9,86.1,1000.0,323.9,1.1,2.2,334.2,0.00,22.5,25.3,"20:56:08",1
"23/07/19","21:10",0.0,25.0,86.4,1000.8,337.6,0.7,1.4,16.6,0.00,22.6,25.3,"21:07:52",1
"23/07/19","21:20",0.0,24.8,86.7,1000.8,353.5,1.1,1.8,359.4,0.00,22.5,25.4,"21:13:52",1
"23/07/19","21:30",0.0,24.5,87.4,1000.5,1.9,1.1,2.9,18.2,0.00,22.3,25.0,"21:21:36",1
"23/07/19","21:40",0.0,24.3,87.9,1000.3,322.9,1.0,2.7,343.1,0.00,22.2,25.3,"21:33:28",1
"23/07/19","21:50",0.0,24.2,88.4,1000.5,319.9,0.8,2.4,315.0,0.00,22.2,25.2,"21:48:16",1
"23/07/19","22:00",0.0,24.3,88.5,1000.3,340.1,0.8,1.6,338.0,0.00,22.3,25.2,"21:59:28",1
"23/07/19","22:10",0.0,24.5,88.5,1000.5,334.9,1.2,1.9,0.7,0.00,22.5,25.2,"22:03:28",1
"23/07/19","22:20",0.0,24.3,88.8,1000.8,353.5,1.0,2.0,353.5,0.00,22.4,25.1,"22:15:36",1
"23/07/19","22:30",0.0,23.9,89.1,1000.8,334.6,0.3,1.1,4.5,0.00,22.0,25.1,"22:22:00",1
"23/07/19","22:40",0.0,23.9,89.5,1000.5,349.1,1.1,1.8,343.4,0.00,22.1,25.1,"22:37:20",1
"23/07/19","22:50",0.0,23.6,90.0,1000.8,337.5,0.8,1.4,347.1,0.00,21.9,25.1,"22:47:36",1
"23/07/19","23:00",0.0,23.4,90.3,1000.5,330.1,1.1,2.0,336.4,0.00,21.8,25.0,"22:53:28",1
"23/07/19","23:10",0.0,23.3,90.7,1000.8,321.3,1.2,2.1,329.7,0.00,21.7,25.1,"23:03:20",1
"23/07/19","23:20",0.0,23.2,91.1,1000.8,317.8,1.0,2.0,322.2,0.00,21.7,24.8,"23:10:56",1
"23/07/19","23:30",0.0,23.4,91.3,1000.5,343.6,1.1,2.2,331.1,0.00,21.9,24.9,"23:29:36",1
"23/07/19","23:40",0.0,23.3,91.5,1000.5,330.8,1.5,2.5,333.0,0.00,21.9,25.0,"23:34:48",1
"23/07/19","23:50",0.0,23.4,91.3,1001.0,309.8,1.5,2.8,322.2,0.00,21.9,24.8,"23:41:04",1
"23/07/19","24:00",0.0,23.5,90.9,1001.0,314.1,1.3,2.0,321.4,0.00,22.0,25.0,"23:52:00",1
